Weather in Khmelnytskyi

Ukraine / Khmelnitsky District     49˚25′22″N   26˚59′13″E
temp.,
°C
wind,
m/s
gust,
m/s
humid.,
%
clouds,
%
prec.,
mm/h
press.,
hPa
HPBL,
m
3 december, thu
thu323:00−1˚sse4780100 0.0 1025630
02:00−1˚sse4987100 0.0 1024473
05:00−1˚sse5108785 0.0 1023598
08:00se4109493 0.0 1023447
11:00+1˚sse61188100 0.0 1022697
14:00+2˚se71182100 0.0 1021877
17:00+1˚sse61390100 0.0 1020695
20:00+1˚sse7129795 0.0 1020603
4 december, fri
fri423:00+2˚sse71394100 0.0 1019687
02:00+2˚se61496100 0.0 1018591
05:00+2˚sse81395100 0.0 1017632
08:00+3˚sse81589100 0.0 1017756
11:00+5˚sse101780100 0.0 1017847
14:00+7˚sse101673100 0.0 1015948
17:00+7˚sse10178796 0.0 1015945
20:00+7˚sse9168698 0.0 1017875
5 december, sat
sat523:00+6˚sse91687100 0.0 1017870
02:00+6˚sse91586100 0.0 1018747
05:00+6˚sse91586100 0.0 1018678
08:00+6˚sse9168691 0.0 1019753
11:00+6˚sse9158388 0.0 1020802
14:00+6˚sse9148094 0.0 1020876
17:00+5˚se81583100 0.0 1021635
20:00+4˚se8148696 0.0 1022685
6 december, sun
sun623:00+3˚se81383100 0.0 1023673
02:00+2˚se8138599 0.0 1023625
05:00+1˚se91387100 0.0 1023648
08:00+1˚se81385100 0.0 1023659
11:00+1˚se81281100 0.0 1024682
14:00+1˚se81276100 0.0 1023676
17:00se91479100 0.0 1022663
20:00se10167993 0.0 1023622
7 december, mon
mon723:00−1˚se10178078 0.0 1022569
02:00se10168272 0.0 1022626
05:00−1˚se9178358 0.0 1022569
08:00−1˚se9168073 0.0 1021693
11:00se91574100 0.0 1022750
14:00se81472100 0.0 1021758
17:00−1˚se71569100 0.0 1021678
20:00−2˚se91571100 0.0 1022617